Starlink 30853

operational
NORAD ID: 58236 Int'l Des: 2023-171 Owner: SPXS Country: US Constellation: starlink
LEOCIRCULAR

关于 Starlink 30853

正在加载描述...

实时位置

正在加载3D地球...

即将过境

高度历史

Altitude vs Time

uPlot chart will show altitude changes over time

两行轨道根数

1 58236U 23171G 25303.99987291 .00001227 00000-0 10590-3 0 9995
2 58236 43.0057 270.9609 0001249 265.8058 94.2641 15.02537189110210
Epoch: Oct 30, 2025 • Age: 18 hours

当前状态

高度 563.0 km
速度 7.59 km/s
星下点 42.65°N, 37.15°E
发射日期 Nov 8, 2023
运行时间 1.9 years
类型 internet

技术详情

分类 Payload
质量 730.00 kg
干质量 700.00 kg
总质量 730.00 kg
长度 0.30 m
直径 4.10 m
跨度 29.00 m
形状 Box + pan
制造商 SPXS
平台类型 Starlink V2M
阶段状态 In Orbit
所有者/国家 SPXS/US

大型星座

Loading constellations...